Weather observations for the past three days for
Eagle Pass - Maverick County Memorial International Airport
Imperial (Metric)
Date Time (cdt) Wind (mph) Vis. (mi.) Weather Sky Cond. Temperature (ºF) Relative Humidity Wind Chill (°F) Heat Index (°F) Pressure Precipitation (in)
Air Dwpt 6 hour altimeter (in) sea level (mb) 1 hr 3 hr 6 hr
Max. Min.
22 03:35 NE 5 8.00 Fair CLR 78.8 75.2 89% 82 29.92 0.0
22 03:15 E 6 8.00 Fair CLR 78.8 75.2 89% 82 29.92 0.0
22 02:55 NE 6 6.00 Fair with Haze CLR 78.8 75.2 89% 82 29.93 0.0
22 02:35 E 6 8.00 Fair CLR 80.6 75.2 84% 86 29.93 0.0
22 02:10 E 5 8.00 Fair CLR 80.6 73.4 79% 85 29.94 0.0
22 01:55 E 7 8.00 A Few Clouds FEW120 82.4 73.4 74% 88 29.94 0.0
22 01:35 E 8 8.00 Mostly Cloudy BKN110 82.4 73.4 74% 88 29.94 0.0
22 01:15 SE 8 7.00 Mostly Cloudy BKN110 82.4 73.4 74% 88 29.94 0.0
22 00:55 E 9 9.00 A Few Clouds FEW120 82.4 73.4 74% 88 29.95 0.0
22 00:35 E 8 7.00 Partly Cloudy SCT120 82.4 73.4 74% 88 29.94 0.0
22 00:15 E 7 8.00 Fair CLR 82.4 73.4 74% 88 29.95 0.0
21 23:55 E 9 G 15 8.00 Fair CLR 82.4 73.4 74% 88 29.95 0.0
21 23:35 E 10 G 18 7.00 Fair CLR 82.4 71.6 70% 87 29.95 0.0
21 23:15 E 14 8.00 Fair CLR 82.4 71.6 70% 87 29.95 0.0
21 22:55 E 12 G 18 8.00 Fair CLR 82.4 71.6 70% 87 29.95 0.0
21 22:35 E 14 G 20 8.00 Fair CLR 84.2 69.8 62% 88 29.94 0.0
21 22:15 E 15 G 24 8.00 Fair CLR 84.2 69.8 62% 88 29.94 0.0
21 21:55 NE 15 G 22 8.00 Fair CLR 84.2 71.6 66% 90 29.94 0.0
21 21:35 NE 16 G 23 8.00 Fair CLR 84.2 69.8 62% 88 29.93 0.0
21 21:15 NE 14 G 21 8.00 Fair CLR 84.2 69.8 62% 88 29.91 0.0
21 20:55 NE 13 G 26 9.00 Mostly Cloudy SCT085 BKN110 84.2 69.8 62% 88 29.9 0.0
21 20:35 NE 18 G 33 6.00 Overcast with Haze BKN080 OVC110 87.8 69.8 55% 93 29.9 0.0
21 20:15 NE 16 G 24 6.00 Mostly Cloudy with Haze SCT090 BKN120 89.6 68 49% 93 29.9 0.0
21 19:55 NE 15 G 23 6.00 Mostly Cloudy with Haze BKN090 BKN110 89.6 68 49% 93 29.88 0.0
21 19:35 NE 18 G 26 5.00 A Few Clouds with Haze FEW090 91.4 69.8 49% 97 29.88 0.0
21 19:10 NE 13 G 26 6.00 A Few Clouds with Haze FEW090 95 66.2 39% 98 29.88 0.0
21 18:55 NE 15 G 24 5.00 A Few Clouds with Haze FEW090 95 69.8 44% 101 29.87 0.0
21 18:35 N 15 5.00 A Few Clouds with Haze FEW090 95 69.8 44% 101 29.87 0.0
21 18:15 SE 10 G 17 6.00 Fair with Haze CLR 100.4 62.6 29% 102 29.85 0.0
21 17:55 SE 10 6.00 Fair with Haze CLR 98.6 64.4 33% 101 29.86 0.0
21 17:35 E 10 5.00 A Few Clouds with Haze FEW080 98.6 64.4 33% 101 29.86 0.0
21 16:55 SE 8 5.00 Fair with Haze CLR 102.2 62.6 27% 104 29.86 0.0
21 16:35 Vrbl 5 G 17 6.00 Fair with Haze CLR 100.4 64.4 31% 104 29.86 0.0
21 16:15 SE 9 G 16 5.00 A Few Clouds with Haze FEW080 102.2 64.4 29% 106 29.87 0.0
21 15:55 Vrbl 7 G 14 5.00 A Few Clouds with Haze FEW080 FEW100 100.4 64.4 31% 104 29.87 0.0
21 15:35 Calm 6.00 Fair with Haze CLR 98.6 66.2 35% 103 29.87 0.0
21 15:15 E 9 G 17 5.00 Fair with Haze CLR 98.6 64.4 33% 101 29.88 0.0
21 14:55 SE 12 6.00 A Few Clouds with Haze FEW075 100.4 64.4 31% 104 29.89 0.0
21 14:35 Vrbl 5 G 13 5.00 Fair with Haze CLR 98.6 64.4 33% 101 29.9 0.0
21 14:15 Vrbl 7 5.00 Fair with Haze CLR 98.6 66.2 35% 103 29.91 0.0
21 13:55 Vrbl 3 G 13 5.00 Partly Cloudy with Haze SCT065 96.8 68 39% 102 29.93 0.0
21 13:35 S 8 G 16 6.00 A Few Clouds with Haze FEW065 96.8 68 39% 102 29.94 0.0
21 13:15 Vrbl 3 G 14 5.00 Fair with Haze CLR 96.8 69.8 42% 103 29.95 0.0
21 12:55 SE 8 5.00 Fair with Haze CLR 95 68 41% 100 29.96 0.0
21 12:35 E 8 6.00 Fair with Haze CLR 95 69.8 44% 101 29.96 0.0
21 12:15 Vrbl 5 G 12 6.00 Fair with Haze CLR 93.2 73.4 53% 103 29.97 0.0
21 11:50 Vrbl 5 G 12 5.00 Fair with Haze CLR 91.4 75.2 59% 103 29.97 0.0
21 11:35 Vrbl 6 G 13 5.00 Fair with Haze CLR 91.4 75.2 59% 103 29.97 0.0
21 11:15 SE 7 6.00 Fair with Haze CLR 89.6 75.2 63% 100 29.98 0.0
21 10:55 Vrbl 7 6.00 Fair with Haze CLR 87.8 75.2 66% 98 29.98 0.0
21 10:35 SE 7 G 13 6.00 Fair with Haze CLR 86 77 75% 97 29.98 0.0
21 10:15 SE 10 6.00 Fair with Haze CLR 86 77 75% 97 29.99 0.0
21 09:55 SE 8 10.00 Fair CLR 84.2 77 79% 94 30 0.0
21 09:35 SE 9 8.00 Fair CLR 84.2 77 79% 94 30 0.0
21 09:15 SE 8 6.00 Fair with Haze CLR 82.4 77 84% 91 30 0.0
21 08:55 SE 10 6.00 Fair with Haze CLR 82.4 77 84% 91 29.99 0.0
21 08:35 SE 9 6.00 Fair with Haze CLR 80.6 77 89% 87 29.99 0.0
21 08:15 E 10 6.00 Fog/Mist CLR 78.8 77 94% 83 29.99 0.0
21 07:55 E 7 6.00 Fog/Mist CLR 78.8 77 94% 83 29.99 0.0
21 07:35 E 8 6.00 Fog/Mist CLR 77 77 100% 78 29.99 0.0
21 07:15 E 7 6.00 Fog/Mist CLR 77 75.2 94% 78 29.99 0.0
21 06:55 E 7 8.00 Fair CLR 77 75.2 94% 78 29.98 0.0
21 06:35 NE 7 7.00 Fair CLR 77 75.2 94% 78 29.98 0.0
21 06:15 E 7 7.00 Fair CLR 77 75.2 94% 78 29.97 0.0
21 05:55 NE 6 7.00 Fair CLR 77 75.2 94% 78 29.97 0.0
21 05:35 NE 6 8.00 Fair CLR 78.8 75.2 89% 82 29.96 0.0
21 05:15 NE 3 8.00 Fair CLR 80.6 73.4 79% 85 29.96 0.0
21 04:55 SE 7 8.00 Fair CLR 80.6 73.4 79% 85 29.96 0.0
21 04:35 SE 6 7.00 Fair CLR 80.6 73.4 79% 85 29.96 0.0
21 04:15 SE 7 8.00 Fair CLR 82.4 73.4 74% 88 29.96 0.0
21 03:55 SE 8 G 17 8.00 Fair CLR 82.4 73.4 74% 88 29.95 0.0
21 03:35 SE 12 9.00 Fair CLR 82.4 73.4 74% 88 29.95 0.0
21 03:15 SE 12 8.00 Fair CLR 82.4 73.4 74% 88 29.95 0.0
21 02:55 SE 10 8.00 Fair CLR 84.2 73.4 70% 91 29.95 0.0
21 02:35 SE 10 8.00 Fair CLR 84.2 73.4 70% 91 29.96 0.0
21 02:15 SE 12 7.00 Fair CLR 84.2 73.4 70% 91 29.97 0.0
21 01:55 SE 10 8.00 Fair CLR 84.2 73.4 70% 91 29.97 0.0
21 01:35 SE 9 7.00 Fair CLR 84.2 73.4 70% 91 29.98 0.0
21 01:15 SE 9 8.00 Fair CLR 86 73.4 66% 93 29.98 0.0
21 00:55 SE 10 G 16 8.00 Fair CLR 86 73.4 66% 93 29.98 0.0
21 00:35 SE 12 7.00 Fair CLR 86 73.4 66% 93 29.97 0.0
21 00:15 SE 14 G 20 8.00 Fair CLR 86 71.6 62% 92 29.97 0.0
20 23:55 SE 12 7.00 Fair CLR 86 71.6 62% 92 29.96 0.0
20 22:55 E 10 8.00 Fair CLR 87.8 69.8 55% 93 29.96 0.0
20 22:35 E 12 7.00 Fair CLR 87.8 69.8 55% 93 29.95 0.0
20 22:15 E 13 8.00 A Few Clouds FEW110 89.6 69.8 52% 95 29.94 0.0
20 21:55 SE 14 G 20 7.00 Mostly Cloudy BKN110 91.4 68 46% 96 29.93 0.0
20 21:35 SE 9 7.00 Mostly Cloudy BKN110 93.2 68 44% 98 29.92 0.0
20 21:15 SE 10 10.00 Mostly Cloudy BKN100 93.2 68 44% 98 29.92 0.0
20 20:55 S 7 10.00 Fair CLR 93.2 68 44% 98 29.91 0.0
20 20:35 S 10 9.00 Fair CLR 93.2 68 44% 98 29.9 0.0
20 20:15 SE 12 5.00 Fair with Haze CLR 95 68 41% 100 29.9 0.0
20 19:55 S 16 8.00 Fair CLR 95 68 41% 100 29.9 0.0
20 19:35 SE 15 5.00 Fair with Haze CLR 95 68 41% 100 29.88 0.0
20 19:15 SE 15 G 23 10.00 Fair CLR 96.8 66.2 37% 100 29.88 0.0
20 18:55 SE 16 10.00 Fair CLR 98.6 66.2 35% 103 29.87 0.0
20 18:35 SE 13 G 18 10.00 Fair CLR 100.4 66.2 33% 105 29.87 0.0
20 18:15 SE 15 10.00 Fair CLR 100.4 66.2 33% 105 29.87 0.0
20 17:55 SE 13 10.00 Fair CLR 100.4 64.4 31% 104 29.87 0.0
20 17:35 SE 12 9.00 Fair CLR 100.4 66.2 33% 105 29.88 0.0
20 17:15 SE 9 G 16 10.00 Fair CLR 100.4 66.2 33% 105 29.89 0.0
20 16:55 SE 13 10.00 A Few Clouds FEW090 98.6 66.2 35% 103 29.9 0.0
20 16:35 SE 6 G 21 10.00 Fair CLR 98.6 68 37% 104 29.91 0.0
20 16:15 Vrbl 5 10.00 Fair CLR 102.2 64.4 29% 106 29.91 0.0
20 15:55 Vrbl 6 G 13 5.00 Fair with Haze CLR 100.4 64.4 31% 104 29.93 0.0
20 15:35 S 8 5.00 Fair with Haze CLR 98.6 66.2 35% 103 29.93 0.0
20 15:15 Calm 5.00 Fair with Haze CLR 98.6 66.2 35% 103 29.94 0.0
20 14:55 Vrbl 5 5.00 Fair with Haze CLR 98.6 66.2 35% 103 29.96 0.0
20 14:35 SE 12 5.00 Fair with Haze CLR 98.6 66.2 35% 103 29.96 0.0
20 14:15 Vrbl 6 G 12 4.00 Fair with Haze CLR 98.6 64.4 33% 101 29.97 0.0
20 13:55 Vrbl 5 G 13 5.00 Fair with Haze CLR 96.8 68 39% 102 29.98 0.0
20 13:35 SE 7 5.00 Fair with Haze CLR 96.8 69.8 42% 103 29.99 0.0
20 13:15 SE 6 G 13 5.00 A Few Clouds with Haze FEW050 96.8 71.6 44% 105 30 0.0
20 12:55 Calm 4.00 Fair with Haze CLR 95 71.6 47% 103 30.01 0.0
20 12:35 Vrbl 5 5.00 Fair with Haze CLR 93.2 73.4 53% 103 30.01 0.0
20 12:15 S 9 5.00 Fair with Haze CLR 93.2 73.4 53% 103 30.02 0.0
20 11:55 Vrbl 6 5.00 Fair with Haze CLR 91.4 75.2 59% 103 30.02 0.0
20 11:35 Vrbl 5 G 12 4.00 Fair with Haze CLR 91.4 75.2 59% 103 30.03 0.0
20 11:15 Vrbl 6 5.00 Fair with Haze CLR 89.6 77 67% 103 30.03 0.0
20 10:55 SE 8 6.00 Fair with Haze CLR 87.8 77 70% 100 30.03 0.0
20 10:35 Vrbl 6 5.00 Fair with Haze CLR 87.8 77 70% 100 30.04 0.0
20 10:15 Vrbl 6 G 13 5.00 Fair with Haze CLR 86 77 75% 97 30.03 0.0
20 09:55 SE 5 G 12 5.00 Fair with Haze CLR 86 77 75% 97 30.03 0.0
20 09:35 SE 9 6.00 Fair with Haze CLR 86 77 75% 97 30.03 0.0
20 09:15 E 9 5.00 Fair with Haze CLR 84.2 77 79% 94 30.02 0.0
20 08:55 E 9 5.00 Fair with Haze CLR 82.4 77 84% 91 30.02 0.0
20 08:35 E 9 6.00 Fair with Haze CLR 80.6 77 89% 87 30.01 0.0
20 08:15 E 7 5.00 Fog/Mist CLR 80.6 77 89% 87 30.01 0.0
20 07:55 E 8 5.00 Fog/Mist CLR 78.8 77 94% 83 30 0.0
20 07:35 E 7 5.00 Fog/Mist CLR 78.8 77 94% 83 30 0.0
20 07:15 E 7 5.00 Fog/Mist CLR 77 77 100% 78 29.99 0.0
20 06:55 E 7 7.00 Fair CLR 77 77 100% 78 29.99 0.0
20 06:35 E 3 7.00 Fair CLR 78.8 77 94% 83 29.99 0.0
20 06:15 Calm 7.00 Fair CLR 78.8 77 94% 83 29.99 0.0
20 05:55 SE 6 7.00 Fair CLR 80.6 77 89% 87 29.99 0.0
20 05:35 SE 6 7.00 Fair CLR 80.6 77 89% 87 29.99 0.0
20 05:15 E 7 7.00 A Few Clouds FEW090 80.6 77 89% 87 29.99 0.0
20 04:55 E 6 7.00 Mostly Cloudy BKN085 82.4 75.2 79% 89 29.99 0.0
20 04:35 E 7 7.00 Overcast SCT075 OVC085 82.4 75.2 79% 89 29.99 0.0
20 04:15 E 7 7.00 Overcast BKN075 OVC085 82.4 75.2 79% 89 29.98 0.0
20 03:55 E 9 7.00 Mostly Cloudy BKN075 BKN090 BKN110 82.4 75.2 79% 89 29.98 0.0
20 03:35 E 8 7.00 Overcast SCT070 OVC080 82.4 75.2 79% 89 29.98 0.0
20 03:15 E 13 9.00 Partly Cloudy SCT065 SCT075 82.4 75.2 79% 89 29.98 0.0
20 02:55 SE 9 7.00 A Few Clouds FEW060 FEW085 84.2 75.2 74% 92 29.98 0.0
20 02:35 Calm 7.00 A Few Clouds FEW080 FEW120 84.2 75.2 74% 92 29.98 0.0
20 02:15 Calm 7.00 Mostly Cloudy BKN085 BKN120 84.2 73.4 70% 91 29.98 0.0
20 01:55 E 10 8.00 Mostly Cloudy BKN085 BKN120 84.2 73.4 70% 91 29.98 0.0
20 01:35 E 9 9.00 Partly Cloudy FEW080 SCT120 84.2 73.4 70% 91 29.98 0.0
20 01:15 E 12 8.00 Fair CLR 86 71.6 62% 92 29.98 0.0
20 00:55 E 8 7.00 Mostly Cloudy BKN120 86 71.6 62% 92 29.98 0.0
20 00:35 E 7 7.00 Overcast OVC120 86 71.6 62% 92 29.98 0.0
20 00:15 E 9 8.00 Partly Cloudy SCT120 86 71.6 62% 92 29.98 0.0
19 23:55 SE 8 8.00 Fair CLR 87.8 71.6 59% 94 29.98 0.0
19 23:35 SE 10 7.00 A Few Clouds FEW120 87.8 71.6 59% 94 29.98 0.0
19 23:15 SE 13 7.00 Partly Cloudy SCT110 87.8 69.8 55% 93 29.97 0.0
19 22:55 SE 14 7.00 Mostly Cloudy BKN110 89.6 69.8 52% 95 29.96 0.0
19 22:35 E 10 7.00 Overcast FEW075 OVC100 89.6 69.8 52% 95 29.95 0.0
19 22:15 E 9 8.00 Mostly Cloudy FEW075 BKN095 BKN120 89.6 69.8 52% 95 29.94 0.0
19 21:55 E 13 7.00 Mostly Cloudy FEW055 SCT075 BKN100 91.4 68 46% 96 29.93 0.0
19 21:35 E 3 7.00 Overcast FEW060 BKN080 OVC090 91.4 69.8 49% 97 29.93 0.0
19 21:15 E 5 7.00 Mostly Cloudy BKN085 91.4 68 46% 96 29.92 0.0
19 20:55 S 6 9.00 Partly Cloudy SCT090 93.2 68 44% 98 29.9 0.0
19 20:35 S 8 G 14 5.00 A Few Clouds with Haze FEW090 93.2 69.8 47% 99 29.9 0.0
19 20:15 S 12 6.00 Fair with Haze CLR 95 68 41% 100 29.89 0.0
19 19:55 S 12 5.00 Fair with Haze CLR 96.8 66.2 37% 100 29.89 0.0
19 19:35 S 6 G 12 6.00 Fair with Haze CLR 98.6 62.6 31% 100 29.89 0.0
19 19:15 SE 10 5.00 Fair with Haze CLR 98.6 62.6 31% 100 29.89 0.0
19 18:55 S 9 5.00 Fair with Haze CLR 98.6 64.4 33% 101 29.89 0.0
19 18:35 S 10 5.00 Fair with Haze CLR 98.6 64.4 33% 101 29.89 0.0
19 18:15 Vrbl 6 G 13 5.00 Fair with Haze CLR 98.6 64.4 33% 101 29.89 0.0
19 17:55 SE 8 6.00 Fair with Haze CLR 98.6 66.2 35% 103 29.9 0.0
19 17:35 E 9 5.00 Fair with Haze CLR 98.6 66.2 35% 103 29.91 0.0
19 17:15 SE 8 5.00 A Few Clouds with Haze FEW085 FEW110 96.8 66.2 37% 100 29.91 0.0
19 16:55 E 17 G 26 5.00 Mostly Cloudy with Haze SCT075 BKN085 96.8 64.4 34% 99 29.92 0.0
19 16:35 E 13 G 20 5.00 Mostly Cloudy with Haze BKN075 98.6 66.2 35% 103 29.92 0.0
19 16:15 Calm 5.00 A Few Clouds with Haze FEW075 98.6 68 37% 104 29.92 0.0
19 15:55 Vrbl 7 G 14 5.00 A Few Clouds with Haze FEW070 98.6 66.2 35% 103 29.93 0.0
19 15:15 SE 15 G 21 5.00 Fair with Haze CLR 98.6 71.6 42% 108 29.95 0.0
19 14:55 Vrbl 3 5.00 A Few Clouds with Haze FEW075 FEW085 98.6 62.6 31% 100 29.96 0.0
19 14:35 W 8 5.00 Fair with Haze CLR 98.6 68 37% 104 29.97 0.0
19 14:15 W 5 5.00 Fair with Haze CLR 96.8 68 39% 102 29.98 0.0
19 13:55 Calm 6.00 Fair with Haze CLR 95 68 41% 100 29.99 0.0
19 13:35 W 12 G 20 5.00 A Few Clouds with Haze FEW060 FEW080 91.4 71.6 52% 99 30 0.0
19 13:15 W 7 5.00 A Few Clouds with Haze FEW070 95 71.6 47% 103 30.01 0.0
19 12:55 Vrbl 7 5.00 A Few Clouds with Haze FEW055 FEW070 93.2 71.6 50% 101 30.01 0.0
19 12:35 SW 7 5.00 Mostly Cloudy with Haze SCT050 BKN060 BKN070 91.4 75.2 59% 103 30.02 0.0
19 12:15 Calm 5.00 Partly Cloudy with Haze FEW047 SCT055 91.4 73.4 56% 100 30.03 0.0
19 11:55 NE 7 5.00 Partly Cloudy with Haze SCT040 SCT050 SCT060 91.4 75.2 59% 103 30.04 0.0
19 11:35 E 5 9.00 Mostly Cloudy BKN039 BKN050 91.4 75.2 59% 103 30.05 0.0
19 11:15 Calm 5.00 Fair with Haze CLR 89.6 75.2 63% 100 30.05 0.0
19 10:55 Calm 5.00 Fair with Haze CLR 89.6 77 67% 103 30.05 0.0
19 10:35 Calm 5.00 Fair with Haze CLR 89.6 77 67% 103 30.05 0.0
19 10:15 S 6 6.00 Fair with Haze CLR 87.8 77 70% 100 30.05 0.0
19 09:55 S 6 5.00 Fair with Haze CLR 86 78.8 79% 99 30.06 0.0
19 09:35 SE 7 5.00 Fair with Haze CLR 86 78.8 79% 99 30.06 0.0
19 09:15 SE 7 G 14 5.00 Fair with Haze CLR 84.2 78.8 84% 96 30.06 0.0
19 08:55 S 9 6.00 Fair with Haze CLR 84.2 77 79% 94 30.05 0.0
19 08:35 SE 8 6.00 Fair with Haze CLR 84.2 73.4 70% 91 30.05 0.0
19 08:15 SE 7 7.00 Fair CLR 82.4 73.4 74% 88 30.03 0.0
19 07:55 S 5 6.00 Fair with Haze CLR 78.8 73.4 84% 82 30.03 0.0
19 07:35 SE 3 7.00 Fair CLR 77 73.4 89% 78 30.02 0.0
19 07:15 SE 3 5.00 Fog/Mist CLR 77 73.4 89% 78 30.02 0.0
19 06:55 SE 6 7.00 Fair CLR 77 73.4 89% 78 30.02 0.0
19 06:35 SE 6 7.00 Fair CLR 78.8 75.2 89% 82 30.01 0.0
19 06:15 SE 7 7.00 Fair CLR 80.6 75.2 84% 86 30.01 0.0
19 05:55 SE 8 8.00 Partly Cloudy SCT055 SCT075 80.6 77 89% 87 30.01 0.0
19 05:35 SE 9 8.00 Mostly Cloudy BKN055 80.6 77 89% 87 30.01 0.0
19 05:15 E 6 8.00 Mostly Cloudy BKN055 80.6 75.2 84% 86 30.01 0.0
19 04:55 SE 6 8.00 Partly Cloudy FEW050 SCT055 80.6 75.2 84% 86 30.01 0.0
19 04:35 SE 7 7.00 A Few Clouds FEW050 FEW055 80.6 71.6 74% 85 30.01 0.0
19 04:15 SE 5 9.00 Partly Cloudy FEW050 SCT070 80.6 69.8 70% 84 30 0.0
Date Time (cdt) Wind (mph) Vis. (mi.) Weather Sky Cond. Air Dwpt Max. Min. Relative Humidity Wind Chill (°F) Heat Index (°F) altimeter (in) sea level (mb) 1 hr 3 hr 6 hr
6 hour
Temperature (ºF) Pressure Precipitation (in)